Location: Newark
(48.4472°N, 1.4892°E)
Time: 00:25:51
(UTC+00:00)

Transit 4A - Pass Details

Date: 23 November 2019
Orbit: 870 x 975 km, 66.8° (Epoch: 07 December)

Event Time Altitude Azimuth Distance (km) Brightness Sun altitude
Exits shadow 02:28:55 12° 41° (NE) 2,413 10.5 -46.1°
Drops below altitude 10° 02:29:47 10° 48° (NE) 2,557 10.7 -46.0°
Sets 02:33:29 0° 72° (ENE) 3,479 11.6 -45.4°
